WD4IXD-WX Weather Reports


time (UTC)temp
C
wind
direction
speed
KPH
gust
KPH
rain 1hr
cm
rain 24hr
cm
rain mn
cm
humidity
%
barometer
mb
20260906223515 24 218 22.5 32.2 0.00 0.00 0.00 18 1024.7
20260906223004 25 208 17.7 25.7 0.00 0.00 0.00 17 1024.8
20260906222515 25 153 3.2 11.3 0.00 0.00 0.00 17 1024.8
20260906222003 25 161 9.7 19.3 0.00 0.00 0.00 17 1024.9
20260906221515 24 187 11.3 24.1 0.00 0.00 0.00 17 1024.9
20260906221004 24 233 8.0 19.3 0.00 0.00 0.00 17 1025.0
20260906220515 24 199 9.7 27.4 0.00 0.00 0.00 18 1025.0
20260906220015 25 212 4.8 14.5 0.00 0.00 0.00 18 1025.1
20260906215503 24 153 6.4 19.3 0.00 0.00 0.00 17 1025.1
20260906215015 25 223 11.3 33.8 0.00 0.00 0.00 15 1025.2
20260906214504 25 215 11.3 24.1 0.00 0.00 0.00 17 1025.2
20260906214004 24 208 9.7 22.5 0.00 0.00 0.00 17 1025.2
20260906213514 24 199 9.7 22.5 0.00 0.00 0.00 18 1025.3
20260906213004 23 158 8.0 19.3 0.00 0.00 0.00 16 1025.4
20260906212515 23 149 11.3 24.1 0.00 0.00 0.00 18 1025.4
20260906212004 24 216 24.1 35.4 0.00 0.00 0.00 17 1025.6
20260906211515 24 263 11.3 27.4 0.00 0.00 0.00 13 1025.5
20260906211004 24 216 17.7 35.4 0.00 0.00 0.00 10 1025.6
20260906210515 23 208 20.9 32.2 0.00 0.00 0.00 12 1025.5
20260906210004 24 206 11.3 25.7 0.00 0.00 0.00 15 1025.5
20260906205514 24 221 11.3 25.7 0.00 0.00 0.00 17 1025.6
20260906205004 24 235 14.5 32.2 0.00 0.00 0.00 18 1025.6
20260906204515 24 238 12.9 25.7 0.00 0.00 0.00 18 1025.6
20260906204004 24 252 9.7 22.5 0.00 0.00 0.00 19 1025.7
20260906203514 24 196 9.7 24.1 0.00 0.00 0.00 18 1025.7
20260906203004 24 223 20.9 33.8 0.00 0.00 0.00 18 1025.6
20260906202515 24 163 4.8 16.1 0.00 0.00 0.00 15 1025.7
20260906202003 23 139 8.0 19.3 0.00 0.00 0.00 15 1025.7
20260906201515 23 161 16.1 25.7 0.00 0.00 0.00 15 1025.8
20260906201004 23 230 9.7 22.5 0.00 0.00 0.00 15 1025.8
20260906200515 23 164 14.5 25.7 0.00 0.00 0.00 17 1025.9
20260906200004 23 178 11.3 24.1 0.00 0.00 0.00 17 1025.9
20260906195504 23 208 8.0 14.5 0.00 0.00 0.00 19 1025.9
20260906195014 23 224 11.3 24.1 0.00 0.00 0.00 19 1026.0
20260906194504 23 213 19.3 33.8 0.00 0.00 0.00 17 1025.9
20260906194015 23 161 0.0 0.0 0.00 0.00 0.00 18 1025.9
20260906193504 23 157 0.0 0.0 0.00 0.00 0.00 20 1026.0
20260906193015 23 208 6.4 22.5 0.00 0.00 0.00 19 1025.9
20260906192503 23 207 3.2 19.3 0.00 0.00 0.00 19 1026.0
20260906192015 23 147 0.0 0.0 0.00 0.00 0.00 19 1026.0
20260906191504 22 180 0.0 11.3 0.00 0.00 0.00 22 1026.0
20260906191014 22 190 8.0 19.3 0.00 0.00 0.00 22 1026.1
20260906190504 22 212 6.4 24.1 0.00 0.00 0.00 21 1026.0
20260906190015 23 185 0.0 0.0 0.00 0.00 0.00 24 1026.1
20260906185515 23 185 0.0 0.0 0.00 0.00 0.00 24 1026.1
20260906185003 22 190 0.0 20.9 0.00 0.00 0.00 23 1026.2
20260906184515 23 195 8.0 19.3 0.00 0.00 0.00 25 1026.3
20260906184004 22 155 8.0 20.9 0.00 0.00 0.00 22 1026.3
20260906183515 22 145 9.7 20.9 0.00 0.00 0.00 25 1026.3
20260906183004 22 166 8.0 14.5 0.00 0.00 0.00 25 1026.4
20260906182503 22 203 4.8 12.9 0.00 0.00 0.00 27 1026.5
20260906182015 22 153 8.0 22.5 0.00 0.00 0.00 27 1026.6
20260906181504 21 143 8.0 14.5 0.00 0.00 0.00 29 1026.6
20260906181014 21 155 14.5 22.5 0.00 0.00 0.00 29 1026.7
20260906180504 22 232 11.3 19.3 0.00 0.00 0.00 28 1026.8
20260906180015 21 180 3.2 11.3 0.00 0.00 0.00 32 1026.9
20260906175504 21 159 8.0 16.1 0.00 0.00 0.00 32 1026.9
20260906175015 21 203 4.8 12.9 0.00 0.00 0.00 32 1027.0
20260906174504 21 217 8.0 12.9 0.00 0.00 0.00 32 1027.1
20260906174004 21 169 8.0 16.1 0.00 0.00 0.00 31 1027.2
20260906173515 21 180 4.8 12.9 0.00 0.00 0.00 33 1027.2
20260906173015 21 307 3.2 11.3 0.00 0.00 0.00 32 1027.2
20260906172515 21 237 4.8 14.5 0.00 0.00 0.00 34 1027.3
20260906172004 21 155 9.7 19.3 0.00 0.00 0.00 36 1027.3
20260906171515 21 292 6.4 19.3 0.00 0.00 0.00 35 1027.3
20260906171015 20 242 3.2 16.1 0.00 0.00 0.00 34 1027.4
20260906170503 20 257 8.0 14.5 0.00 0.00 0.00 34 1027.4
20260906170015 20 260 8.0 12.9 0.00 0.00 0.00 36 1027.5
20260906165504 20 209 11.3 22.5 0.00 0.00 0.00 37 1027.6
20260906165015 20 172 8.0 14.5 0.00 0.00 0.00 39 1027.5
20260906164505 20 205 6.4 12.9 0.00 0.00 0.00 40 1027.5
20260906164015 19 213 4.8 12.9 0.00 0.00 0.00 38 1027.6
20260906163504 19 214 3.2 11.3 0.00 0.00 0.00 42 1027.6
20260906163015 18 217 8.0 16.1 0.00 0.00 0.00 43 1027.6
20260906162504 18 183 0.0 4.8 0.00 0.00 0.00 44 1027.6
20260906162015 18 179 3.2 8.0 0.00 0.00 0.00 44 1027.6
20260906161503 18 241 3.2 12.9 0.00 0.00 0.00 45 1027.5
20260906161015 17 279 3.2 4.8 0.00 0.00 0.00 46 1027.6
20260906160504 17 278 3.2 12.9 0.00 0.00 0.00 46 1027.6
20260906160015 17 279 4.8 9.7 0.00 0.00 0.00 47 1027.6
20260906155504 17 241 3.2 4.8 0.00 0.00 0.00 48 1027.6
20260906155015 17 299 3.2 9.7 0.00 0.00 0.00 48 1027.6
20260906154503 17 268 3.2 4.8 0.00 0.00 0.00 49 1027.6
20260906154015 17 291 6.4 11.3 0.00 0.00 0.00 49 1027.6
20260906153503 16 306 3.2 4.8 0.00 0.00 0.00 51 1027.6
20260906153015 16 287 0.0 0.0 0.00 0.00 0.00 52 1027.6
20260906152504 15 288 0.0 0.0 0.00 0.00 0.00 52 1027.5
20260906152014 15 288 0.0 0.0 0.00 0.00 0.00 53 1027.6
20260906151504 15 288 1.6 4.8 0.00 0.00 0.00 55 1027.6
20260906151015 14 287 0.0 0.0 0.00 0.00 0.00 56 1027.6
20260906150514 13 287 0.0 1.6 0.00 0.00 0.00 58 1027.6
20260906150004 13 285 1.6 4.8 0.00 0.00 0.00 59 1027.6
20260906145515 13 248 0.0 4.8 0.00 0.00 0.00 60 1027.6
20260906145015 13 228 1.6 4.8 0.00 0.00 0.00 60 1027.7
20260906144504 13 148 0.0 0.0 0.00 0.00 0.00 61 1027.6
20260906144015 12 146 1.6 4.8 0.00 0.00 0.00 62 1027.6
20260906143515 12 141 0.0 4.8 0.00 0.00 0.00 63 1027.5
20260906143004 12 141 1.6 4.8 0.00 0.00 0.00 63 1027.5
20260906142515 12 138 3.2 4.8 0.00 0.00 0.00 63 1027.5
20260906142004 12 125 1.6 3.2 0.00 0.00 0.00 63 1027.6
20260906141515 12 125 0.0 0.0 0.00 0.00 0.00 64 1027.5
20260906141003 12 125 0.0 0.0 0.00 0.00 0.00 64 1027.5
20260906140515 12 125 0.0 1.6 0.00 0.00 0.00 64 1027.5
20260906140005 12 125 0.0 0.0 0.00 0.00 0.00 65 1027.4
20260906135516 11 125 0.0 0.0 0.00 0.00 0.00 66 1027.4
20260906135004 11 125 0.0 0.0 0.00 0.00 0.00 66 1027.3
20260906134515 11 125 0.0 1.6 0.00 0.00 0.00 67 1027.3
20260906134004 11 125 0.0 0.0 0.00 0.00 0.00 67 1027.3
20260906133515 11 125 0.0 0.0 0.00 0.00 0.00 66 1027.4
20260906133015 11 125 0.0 0.0 0.00 0.00 0.00 67 1027.3
20260906132515 11 125 0.0 0.0 0.00 0.00 0.00 67 1027.3
20260906132015 11 125 0.0 0.0 0.00 0.00 0.00 66 1027.3
20260906131504 11 125 0.0 0.0 0.00 0.00 0.00 67 1027.2
20260906131015 11 125 0.0 1.6 0.00 0.00 0.00 67 1027.2
20260906130515 11 125 3.2 4.8 0.00 0.00 0.00 67 1027.2
20260906130004 11 125 3.2 4.8 0.00 0.00 0.00 67 1027.2
20260906125514 11 125 0.0 0.0 0.00 0.00 0.00 67 1027.2
20260906125004 11 125 1.6 3.2 0.00 0.00 0.00 67 1027.1
20260906124515 11 125 1.6 3.2 0.00 0.00 0.00 67 1027.1
20260906124003 11 125 0.0 0.0 0.00 0.00 0.00 67 1027.1
20260906123515 11 125 0.0 3.2 0.00 0.00 0.00 67 1027.1
20260906123004 11 125 3.2 4.8 0.00 0.00 0.00 67 1027.0
20260906122514 11 125 4.8 4.8 0.00 0.00 0.00 67 1027.0
20260906122004 11 125 3.2 4.8 0.00 0.00 0.00 67 1027.0
20260906121515 11 125 1.6 3.2 0.00 0.00 0.00 67 1027.0
20260906121003 11 125 1.6 4.8 0.00 0.00 0.00 66 1027.0
20260906120515 11 125 0.0 4.8 0.00 0.00 0.00 66 1027.0
20260906120005 11 124 1.6 4.8 0.00 0.00 0.00 66 1027.1
20260906115515 11 123 3.2 4.8 0.00 0.00 0.00 65 1027.0
20260906115004 12 123 4.8 4.8 0.00 0.00 0.00 65 1027.0
20260906114515 12 123 3.2 4.8 0.00 0.00 0.00 65 1027.0
20260906114004 12 123 3.2 3.2 0.00 0.00 0.00 65 1027.0
20260906113515 11 122 1.6 4.8 0.00 0.00 0.00 66 1027.0
20260906113015 11 123 1.6 3.2 0.00 0.00 0.00 66 1027.0
20260906112514 11 123 1.6 4.8 0.00 0.00 0.00 65 1027.0
20260906112015 12 123 1.6 4.8 0.00 0.00 0.00 65 1027.0
20260906111504 12 123 0.0 0.0 0.00 0.00 0.00 65 1027.0
20260906111015 12 123 0.0 3.2 0.00 0.00 0.00 65 1026.9
20260906110504 12 123 3.2 4.8 0.00 0.00 0.00 65 1026.9
20260906110015 12 123 4.8 8.0 0.00 0.00 0.00 65 1026.9
20260906105504 12 122 6.4 8.0 0.00 0.00 0.00 65 1026.9
20260906105014 12 119 4.8 4.8 0.00 0.00 0.00 64 1027.0
20260906104504 12 96 4.8 4.8 0.00 0.00 0.00 64 1027.0
20260906104015 12 94 0.0 4.8 0.00 0.00 0.00 63 1027.0
20260906103504 12 94 0.0 0.0 0.00 0.00 0.00 63 1026.9
20260906103015 12 94 0.0 0.0 0.00 0.00 0.00 63 1026.9
20260906102504 12 94 0.0 0.0 0.00 0.00 0.00 62 1026.9
20260906102004 12 94 0.0 0.0 0.00 0.00 0.00 62 1026.9
20260906101515 12 94 0.0 0.0 0.00 0.00 0.00 61 1026.9
20260906101003 12 94 0.0 0.0 0.00 0.00 0.00 61 1026.9
20260906100515 12 94 0.0 0.0 0.00 0.00 0.00 61 1026.9
20260906100004 12 94 0.0 1.6 0.00 0.00 0.00 61 1026.9
20260906095516 12 94 1.6 4.8 0.00 0.00 0.00 61 1026.8
20260906095004 12 94 3.2 4.8 0.00 0.00 0.00 61 1026.8
20260906094515 12 94 3.2 4.8 0.00 0.00 0.00 61 1026.8
20260906094004 12 94 4.8 4.8 0.00 0.00 0.00 61 1026.8
20260906093504 12 94 3.2 4.8 0.00 0.00 0.00 61 1026.8
20260906093004 12 94 3.2 4.8 0.00 0.00 0.00 60 1026.8
20260906092504 12 94 3.2 4.8 0.00 0.00 0.00 60 1026.9
20260906092004 13 94 0.0 4.8 0.00 0.00 0.00 60 1026.9
20260906091515 13 94 0.0 3.2 0.00 0.00 0.00 60 1026.9
20260906091004 13 94 0.0 4.8 0.00 0.00 0.00 60 1026.9
20260906090514 12 94 4.8 4.8 0.00 0.00 0.00 60 1027.0
20260906090004 12 94 3.2 4.8 0.00 0.00 0.00 60 1026.9
20260906085514 12 94 3.2 4.8 0.00 0.00 0.00 60 1027.0
20260906085004 12 94 4.8 4.8 0.00 0.00 0.00 60 1026.9
20260906084515 12 94 3.2 4.8 0.00 0.00 0.00 60 1026.9
20260906084004 13 94 0.0 0.0 0.00 0.00 0.00 60 1026.9
20260906083515 13 94 0.0 0.0 0.00 0.00 0.00 60 1027.0
20260906083003 13 94 0.0 0.0 0.00 0.00 0.00 60 1027.0
20260906082515 13 94 0.0 0.0 0.00 0.00 0.00 60 1026.9
20260906082003 13 94 1.6 4.8 0.00 0.00 0.00 60 1027.0
20260906081515 12 94 3.2 4.8 0.00 0.00 0.00 61 1027.0
20260906081003 12 88 3.2 4.8 0.00 0.00 0.00 61 1027.0
20260906080515 12 34 0.0 4.8 0.00 0.00 0.00 61 1027.0
20260906080015 12 34 0.0 3.2 0.00 0.00 0.00 60 1026.9
20260906075504 12 34 4.8 8.0 0.00 0.00 0.00 61 1026.9
20260906075015 12 35 6.4 8.0 0.00 0.00 0.00 61 1026.9
20260906074504 12 31 4.8 8.0 0.00 0.00 0.00 62 1027.0
20260906074015 12 34 4.8 8.0 0.00 0.00 0.00 62 1027.0
20260906073515 12 42 3.2 4.8 0.00 0.00 0.00 62 1027.1
20260906073004 12 36 6.4 8.0 0.00 0.00 0.00 62 1027.1
20260906072515 12 33 8.0 12.9 0.00 0.00 0.00 62 1027.1
20260906072004 12 30 8.0 8.0 0.00 0.00 0.00 62 1027.1
20260906071515 12 33 8.0 9.7 0.00 0.00 0.00 62 1027.1
20260906071004 12 42 4.8 8.0 0.00 0.00 0.00 62 1027.1
20260906070515 12 28 9.7 11.3 0.00 0.00 0.00 62 1027.1
20260906070004 12 27 9.7 11.3 0.00 0.00 0.00 62 1027.1
20260906065515 13 25 8.0 12.9 0.00 0.00 0.00 62 1027.1
20260906065004 13 31 8.0 8.0 0.00 0.00 0.00 61 1027.1
20260906064515 13 13 3.2 8.0 0.00 0.00 0.00 60 1027.1
20260906064014 13 17 4.8 8.0 0.00 0.00 0.00 61 1027.1
20260906063515 13 11 4.8 8.0 0.00 0.00 0.00 60 1027.1
20260906063004 13 12 3.2 4.8 0.00 0.00 0.00 60 1027.1
20260906062503 13 355 3.2 4.8 0.00 0.00 0.00 60 1027.1
20260906062015 13 25 4.8 4.8 0.00 0.00 0.00 60 1027.1
20260906061514 13 29 3.2 9.7 0.00 0.00 0.00 61 1027.1
20260906061004 13 22 3.2 8.0 0.00 0.00 0.00 61 1027.1
20260906060515 13 23 3.2 8.0 0.00 0.00 0.00 60 1027.0
20260906060004 13 17 4.8 12.9 0.00 0.00 0.00 60 1027.2
20260906055515 13 3 3.2 9.7 0.00 0.00 0.00 61 1027.2
20260906055004 13 6 4.8 8.0 0.00 0.00 0.00 61 1027.2
20260906054515 13 3 3.2 8.0 0.00 0.00 0.00 61 1027.2
20260906054004 13 11 3.2 4.8 0.00 0.00 0.00 60 1027.3
20260906053515 13 22 1.6 4.8 0.00 0.00 0.00 61 1027.3
20260906053004 13 24 1.6 4.8 0.00 0.00 0.00 61 1027.3
20260906052515 13 349 3.2 8.0 0.00 0.00 0.00 61 1027.3
20260906052004 13 14 4.8 9.7 0.00 0.00 0.00 61 1027.4
20260906051515 13 26 4.8 9.7 0.00 0.00 0.00 62 1027.4
20260906051004 13 21 3.2 8.0 0.00 0.00 0.00 61 1027.4
20260906050515 13 7 3.2 9.7 0.00 0.00 0.00 61 1027.4
20260906050004 13 1 4.8 11.3 0.00 0.00 0.00 61 1027.4
20260906045515 13 7 4.8 12.9 0.00 0.00 0.00 60 1027.4
20260906045004 13 5 4.8 12.9 0.00 0.00 0.00 60 1027.4
20260906044514 14 12 8.0 16.1 0.00 0.00 0.00 59 1027.4
20260906044004 14 13 4.8 14.5 0.00 0.00 0.00 58 1027.4
20260906043515 14 358 3.2 8.0 0.00 0.00 0.00 57 1027.4
20260906043004 15 21 3.2 12.9 0.00 0.00 0.00 56 1027.4
20260906042515 15 359 6.4 14.5 0.00 0.00 0.00 56 1027.4
20260906042004 15 351 4.8 11.3 0.00 0.00 0.00 55 1027.4
20260906041516 15 7 3.2 8.0 0.00 0.00 0.00 54 1027.5
20260906041015 15 2 4.8 14.5 0.00 0.00 0.00 53 1027.5
20260906040503 15 9 6.4 14.5 0.00 0.00 0.00 53 1027.5
20260906040004 15 352 4.8 12.9 0.00 0.00 0.00 51 1027.5
20260906035504 15 3 4.8 12.9 0.00 0.00 0.00 50 1027.5
20260906035015 16 357 8.0 19.3 0.00 0.00 0.00 49 1027.5
20260906034514 16 337 8.0 19.3 0.00 0.00 0.00 47 1027.5
20260906034004 16 20 4.8 8.0 0.00 0.00 0.00 47 1027.5
20260906033515 16 320 1.6 4.8 0.00 0.00 0.00 47 1027.4
20260906033004 16 302 4.8 8.0 0.00 0.00 0.00 47 1027.5
20260906032515 16 138 0.0 0.0 0.00 0.00 0.00 46 1027.4
20260906032004 17 136 0.0 0.0 0.00 0.00 0.00 46 1027.3
20260906031515 17 136 0.0 1.6 0.00 0.00 0.00 45 1027.2
20260906031004 17 136 1.6 8.0 0.00 0.00 0.00 45 1027.1
20260906030515 17 109 3.2 9.7 0.00 0.00 0.00 45 1027.1
20260906030003 17 119 3.2 11.3 0.00 0.00 0.00 45 1027.0
20260906025515 17 98 1.6 4.8 0.00 0.00 0.00 45 1026.9
20260906025004 17 90 0.0 4.8 0.00 0.00 0.00 45 1026.9
20260906024515 17 106 3.2 9.7 0.00 0.00 0.00 45 1026.8
20260906024004 17 90 8.0 12.9 0.00 0.00 0.00 45 1026.8
20260906023515 17 106 8.0 14.5 0.00 0.00 0.00 45 1026.8
20260906023003 17 110 8.0 12.9 0.00 0.00 0.00 45 1026.8
20260906022515 17 102 8.0 14.5 0.00 0.00 0.00 45 1026.7
20260906022004 17 104 8.0 14.5 0.00 0.00 0.00 45 1026.6
20260906021515 17 113 8.0 16.1 0.00 0.00 0.00 44 1026.6
20260906021015 17 95 8.0 19.3 0.00 0.00 0.00 44 1026.5
20260906020515 17 106 9.7 19.3 0.00 0.00 0.00 45 1026.5
20260906020015 17 103 8.0 20.9 0.00 0.00 0.00 45 1026.5
20260906015514 17 108 11.3 19.3 0.00 0.00 0.00 45 1026.4
20260906015004 18 116 11.3 19.3 0.00 0.00 0.00 45 1026.3
20260906014515 18 101 9.7 20.9 0.00 0.00 0.00 44 1026.3
20260906014003 18 106 14.5 20.9 0.00 0.00 0.00 44 1026.2
20260906013515 18 108 11.3 19.3 0.00 0.00 0.00 44 1026.2
20260906013004 18 108 9.7 20.9 0.00 0.00 0.00 44 1026.1
20260906012514 18 113 11.3 25.7 0.00 0.00 0.00 43 1026.1
20260906012004 18 109 12.9 19.3 0.00 0.00 0.00 42 1026.1
20260906011515 18 120 9.7 19.3 0.00 0.00 0.00 41 1026.1
20260906011014 19 114 8.0 19.3 0.00 0.00 0.00 41 1026.2
20260906010504 19 102 9.7 20.9 0.00 0.00 0.00 40 1026.1
20260906010014 20 109 14.5 22.5 0.00 0.00 0.00 39 1026.1
20260906005515 20 107 3.2 12.9 0.00 0.00 0.00 39 1026.1
20260906005004 20 118 3.2 14.5 0.00 0.00 0.00 38 1026.2
20260906004515 20 126 4.8 20.9 0.00 0.00 0.00 37 1026.2
20260906004004 20 110 11.3 24.1 0.00 0.00 0.00 37 1026.1
20260906003515 21 115 12.9 22.5 0.00 0.00 0.00 37 1026.1
20260906003004 21 113 14.5 20.9 0.00 0.00 0.00 37 1026.1
20260906002515 21 124 17.7 25.7 0.00 0.00 0.00 37 1026.0
20260906002004 21 115 16.1 29.0 0.00 0.00 0.00 36 1026.0
20260906001515 21 119 16.1 32.2 0.00 0.00 0.00 36 1025.9
20260906001004 21 119 17.7 27.4 0.00 0.00 0.00 35 1025.9
20260906000515 21 107 8.0 32.2 0.00 0.00 0.00 35 1025.9
20260906000004 22 108 14.5 25.7 0.00 0.00 0.00 34 1025.9
20260905235515 22 111 12.9 32.2 0.00 0.00 0.00 33 1025.9
20260905235004 22 122 16.1 22.5 0.00 0.00 0.00 33 1025.9
20260905234515 22 122 14.5 24.1 0.00 0.00 0.00 33 1025.9
20260905234003 22 133 11.3 19.3 0.00 0.00 0.00 33 1025.9
20260905233515 22 112 14.5 32.2 0.00 0.00 0.00 33 1025.9
20260905233004 22 117 14.5 29.0 0.00 0.00 0.00 33 1025.8
20260905232514 22 124 9.7 14.5 0.00 0.00 0.00 34 1025.8
20260905232004 22 92 0.0 0.0 0.00 0.00 0.00 34 1025.7
20260905231515 22 114 0.0 14.5 0.00 0.00 0.00 33 1025.7
20260905231003 21 103 9.7 20.9 0.00 0.00 0.00 35 1025.7
20260905230514 22 115 14.5 22.5 0.00 0.00 0.00 33 1025.8
20260905230004 22 108 14.5 25.7 0.00 0.00 0.00 33 1025.7
20260905225515 22 104 8.0 24.1 0.00 0.00 0.00 32 1025.8
20260905225004 23 97 16.1 25.7 0.00 0.00 0.00 31 1025.7
20260905224515 23 110 14.5 27.4 0.00 0.00 0.00 30 1025.6
20260905224003 24 95 14.5 24.1 0.00 0.00 0.00 29 1025.7